Weather History for KMML - November, 2012

Change the Weather History Date:

Thursday, November 1, 2012

  Actual Average Record
Temperature  
Mean Temperature 36 °F -  
Max Temperature 44 °F 50 °F 70 °F (1990)
Min Temperature 28 °F 32 °F 12 °F (1951)
Degree Days  
Heating Degree Days 29    
Moisture  
Dew Point 27 °F    
Average Humidity 67    
Maximum Humidity 81    
Minimum Humidity 45    
Precipitation  
Precipitation 0.00 in - - ()
Sea Level Pressure  
Sea Level Pressure 30.03 in    
Wind  
Wind Speed 15 mph (NNW)    
Max Wind Speed 21 mph    
Max Gust Speed 25 mph    
Visibility 10 miles    
Events      
Averages and records for this station are not official NWS values.
T = Trace of Precipitation, MM = Missing Value Source: NWS Daily Summary

Daily Weather History Graph

Daily Weather History Graph

Search for Another Location

Airport or City:

Trip Planner

Search our weather history database for the weather conditions in past years. The results will help you decide how hot, cold, wet, or windy it might be!

Date:

Astronomy

Nov. 01, 2012 Rise Set
Actual Time 8:01 AM CDT 6:11 PM CDT
Civil Twilight 7:30 AM CDT 6:42 PM CDT
Nautical Twilight 6:56 AM CDT 7:16 PM CDT
Astronomical Twilight 6:22 AM CDT 7:50 PM CDT
Moon 8:04 PM CDT (11/1) 10:39 AM CDT (11/1)
Length of Visible Light 11h 11m
Length of Day
10h 10m
Waning Gibbous, 93% of the Moon is Illuminated
Nov 1
Waning Gibbous
Nov 6
Last Quarter
Nov 13
New
Nov 20
First Quarter
Nov 28
Full

Hourly Weather History & Observations

Time (CDT) Temp. Windchill Dew Point Humidity Pressure Visibility Wind Dir Wind Speed Gust Speed Precip Events Conditions
12:15 AM 44.6 °F 38.4 °F 35.6 °F 71% 29.96 in 10.0 mi NW 12.7 mph - N/A   Scattered Clouds
12:35 AM 44.6 °F 38.8 °F 35.6 °F 71% 29.96 in 10.0 mi NW 11.5 mph - N/A   Mostly Cloudy
12:55 AM 42.8 °F 36.2 °F 35.6 °F 76% 29.97 in 10.0 mi NW 12.7 mph - N/A   Scattered Clouds
1:15 AM 44.6 °F 38.1 °F 35.6 °F 71% 29.97 in 10.0 mi NW 13.8 mph - N/A   Mostly Cloudy
1:35 AM 44.6 °F 37.8 °F 37.4 °F 76% 29.98 in 10.0 mi NNW 15.0 mph - N/A   Overcast
1:55 AM 44.6 °F 37.4 °F 37.4 °F 76% 29.99 in 10.0 mi NNW 16.1 mph - N/A   Overcast
2:15 AM 44.6 °F 36.6 °F 35.6 °F 71% 29.99 in 10.0 mi NNW 19.6 mph - N/A   Overcast
2:35 AM 42.8 °F 34.5 °F 35.6 °F 76% 29.99 in 10.0 mi NNW 18.4 mph - N/A   Overcast
2:55 AM 42.8 °F 35.4 °F 35.6 °F 76% 30.00 in 10.0 mi NNW 15.0 mph - N/A   Overcast
3:15 AM 42.8 °F 34.3 °F 35.6 °F 76% 30.00 in 8.0 mi NNW 19.6 mph 25.3 mph N/A   Overcast
3:35 AM 42.8 °F 35.4 °F 35.6 °F 76% 30.01 in 8.0 mi NNW 15.0 mph - N/A   Overcast
3:55 AM 41.0 °F 32.5 °F 35.6 °F 81% 30.00 in 8.0 mi NNW 17.3 mph 23.0 mph N/A   Overcast
4:15 AM 41.0 °F 32.2 °F 33.8 °F 76% 30.00 in 10.0 mi NNW 18.4 mph 23.0 mph N/A   Overcast
4:35 AM 41.0 °F 33.1 °F 33.8 °F 76% 30.00 in 10.0 mi NNW 15.0 mph - N/A   Overcast
4:55 AM 41.0 °F 32.8 °F 33.8 °F 76% 30.01 in 10.0 mi NNW 16.1 mph - N/A   Overcast
5:15 AM 41.0 °F 32.5 °F 33.8 °F 76% 30.01 in 10.0 mi North 17.3 mph 23.0 mph N/A   Overcast
5:35 AM 39.2 °F 29.8 °F 33.8 °F 81% 30.02 in 10.0 mi NNW 18.4 mph - N/A   Overcast
5:55 AM 39.2 °F 29.6 °F 33.8 °F 81% 30.03 in 10.0 mi NNW 19.6 mph 23.0 mph N/A   Overcast
6:15 AM 39.2 °F 29.6 °F 32.0 °F 75% 30.03 in 10.0 mi North 19.6 mph 25.3 mph N/A   Overcast
6:35 AM 39.2 °F 29.8 °F 30.2 °F 70% 30.03 in 10.0 mi North 18.4 mph 25.3 mph N/A   Overcast
7:15 AM 37.4 °F 27.2 °F 28.4 °F 70% 30.04 in 10.0 mi North 19.6 mph 25.3 mph N/A   Overcast
7:35 AM 37.4 °F 27.2 °F 28.4 °F 70% 30.04 in 10.0 mi North 19.6 mph - N/A   Overcast
8:35 AM 35.6 °F 26.6 °F 28.4 °F 75% 30.05 in 10.0 mi North 13.8 mph - N/A   Overcast
8:55 AM 35.6 °F 25.5 °F 28.4 °F 75% 30.06 in 10.0 mi NNW 17.3 mph - N/A   Overcast
9:15 AM 35.6 °F 26.6 °F 28.4 °F 75% 30.06 in 10.0 mi North 13.8 mph 19.6 mph N/A   Scattered Clouds
9:35 AM 35.6 °F 25.5 °F 28.4 °F 75% 30.06 in 10.0 mi North 17.3 mph 21.9 mph N/A   Scattered Clouds
10:15 AM 35.6 °F 24.5 °F 26.6 °F 70% 30.07 in 10.0 mi North 20.7 mph - N/A   Scattered Clouds
10:35 AM 35.6 °F 25.2 °F 26.6 °F 70% 30.07 in 10.0 mi North 18.4 mph 23.0 mph N/A   Mostly Cloudy
10:55 AM 35.6 °F 25.2 °F 24.8 °F 65% 30.07 in 10.0 mi North 18.4 mph - N/A   Mostly Cloudy
11:15 AM 35.6 °F 25.2 °F 26.6 °F 70% 30.07 in 10.0 mi NNW 18.4 mph - N/A   Mostly Cloudy
11:35 AM 37.4 °F 28.9 °F 26.6 °F 65% 30.07 in 10.0 mi North 13.8 mph 23.0 mph N/A   Mostly Cloudy
12:15 PM 37.4 °F 27.5 °F 24.8 °F 60% 30.07 in 10.0 mi North 18.4 mph - N/A   Partly Cloudy
12:35 PM 39.2 °F 30.5 °F 24.8 °F 56% 30.06 in 10.0 mi North 16.1 mph 20.7 mph N/A   Clear
12:55 PM 37.4 °F 28.5 °F 24.8 °F 60% 30.06 in 10.0 mi NNW 15.0 mph 21.9 mph N/A   Clear
1:15 PM 39.2 °F 30.2 °F 24.8 °F 56% 30.05 in 10.0 mi North 17.3 mph 23.0 mph N/A   Clear
1:35 PM 39.2 °F 31.2 °F 24.8 °F 56% 30.04 in 10.0 mi North 13.8 mph - N/A   Clear
1:55 PM 39.2 °F 30.8 °F 23.0 °F 52% 30.04 in 10.0 mi NNW 15.0 mph 25.3 mph N/A   Clear
2:15 PM 41.0 °F 32.8 °F 24.8 °F 53% 30.03 in 10.0 mi NNW 16.1 mph 25.3 mph N/A   Clear
2:35 PM 41.0 °F 32.2 °F 23.0 °F 49% 30.02 in 10.0 mi NNW 18.4 mph 23.0 mph N/A   Clear
3:15 PM 41.0 °F 32.5 °F 23.0 °F 49% 30.02 in 10.0 mi NNW 17.3 mph 20.7 mph N/A   Clear
3:35 PM 41.0 °F 33.5 °F 21.2 °F 45% 30.02 in 10.0 mi NNW 13.8 mph 20.7 mph N/A   Clear
3:55 PM 41.0 °F 32.8 °F 23.0 °F 49% 30.02 in 10.0 mi NNW 16.1 mph - N/A   Clear
4:15 PM 41.0 °F 33.1 °F 23.0 °F 49% 30.02 in 10.0 mi North 15.0 mph - N/A   Clear
4:35 PM 41.0 °F 32.8 °F 23.0 °F 49% 30.02 in 10.0 mi North 16.1 mph - N/A   Clear
4:55 PM 39.2 °F 30.8 °F 23.0 °F 52% 30.02 in 10.0 mi North 15.0 mph - N/A   Clear
5:15 PM 39.2 °F 30.8 °F 21.2 °F 49% 30.02 in 10.0 mi North 15.0 mph - N/A   Clear
5:35 PM 37.4 °F 30.3 °F 23.0 °F 56% 30.02 in 10.0 mi North 10.4 mph - N/A   Clear
5:55 PM 37.4 °F 30.3 °F 21.2 °F 52% 30.03 in 10.0 mi NNW 10.4 mph - N/A   Clear
6:15 PM 35.6 °F 29.2 °F 21.2 °F 56% 30.02 in 10.0 mi NNW 8.1 mph - N/A   Clear
6:35 PM 33.8 °F 27.7 °F 21.2 °F 60% 30.02 in 10.0 mi NNW 6.9 mph - N/A   Clear
6:55 PM 32.0 °F 24.2 °F 21.2 °F 64% 30.02 in 10.0 mi NW 9.2 mph - N/A   Clear
7:15 PM 30.2 °F 21.9 °F 21.2 °F 69% 30.03 in 10.0 mi NW 9.2 mph - N/A   Clear
7:35 PM 30.2 °F 21.9 °F 19.4 °F 64% 30.03 in 10.0 mi NW 9.2 mph - N/A   Clear
7:55 PM 30.2 °F 21.9 °F 19.4 °F 64% 30.04 in 10.0 mi NW 9.2 mph - N/A   Clear
8:15 PM 30.2 °F 22.6 °F 21.2 °F 69% 30.04 in 10.0 mi NW 8.1 mph - N/A   Clear
8:35 PM 28.4 °F 19.1 °F 21.2 °F 74% 30.04 in 10.0 mi NW 10.4 mph - N/A   Clear
8:55 PM 30.2 °F 21.9 °F 21.2 °F 69% 30.04 in 10.0 mi NNW 9.2 mph - N/A   Clear
9:15 PM 30.2 °F 21.9 °F 21.2 °F 69% 30.05 in 10.0 mi NNW 9.2 mph - N/A   Clear
9:35 PM 30.2 °F 22.6 °F 21.2 °F 69% 30.05 in 10.0 mi NNW 8.1 mph - N/A   Clear
9:55 PM 30.2 °F 21.9 °F 21.2 °F 69% 30.04 in 10.0 mi North 9.2 mph - N/A   Clear
10:15 PM 30.2 °F 22.6 °F 21.2 °F 69% 30.05 in 10.0 mi North 8.1 mph - N/A   Clear
10:35 PM 30.2 °F 22.6 °F 21.2 °F 69% 30.05 in 10.0 mi North 8.1 mph - N/A   Clear
10:55 PM 28.4 °F 20.4 °F 21.2 °F 74% 30.05 in 10.0 mi North 8.1 mph - N/A   Clear
11:15 PM 28.4 °F 20.4 °F 21.2 °F 74% 30.06 in 10.0 mi North 8.1 mph - N/A   Clear
11:35 PM 28.4 °F 21.2 °F 21.2 °F 74% 30.06 in 10.0 mi North 6.9 mph - N/A   Clear
11:55 PM 28.4 °F 22.2 °F 21.2 °F 74% 30.07 in 10.0 mi North 5.8 mph - N/A   Clear